JY1SAT (JO-97)

Last updated on Sun Jun 21 2026 00:03:20 GMT+0000 (Coordinated Universal Time)

1 43803U 18099AX 26171.42320771 .00014139 00000+0 43536-3 0 9999 2 43803 97.4124 234.2689 0004531 246.7819 113.2947 15.33738605414121
UTC large
Height (km)
Speed (km/s)
/
Latitude / Longitude
Inclination (degrees)
Orbital Period (minutes)
Azimuth
Elevation
Range (km)
Doppler Factor

Next 0 passes for location: London (51.5072 / 0.1276)

No passes found over London.
JY1SAT (JO-97)